This is the latest recevied weather packets stored in our database for station/object N3LF. If no packets are shown the sender has not sent any weather packets the latest 10 day(s).
| Time | Temp. | Humidity | Pressure | Rain* | Wind** | Luminosity | Snow |
|---|---|---|---|---|---|---|---|
| 1777676709 | 16.11° C | 39% | 1017.1 hPa | 0 mm | - | 89 W/m² | - |
| 1777676406 | 16.11° C | 38% | 1017.2 hPa | 0 mm | - | 94 W/m² | - |
| 1777676103 | 16.11° C | 37% | 1017.2 hPa | 0 mm | - | 103 W/m² | - |
| 1777675799 | 16.67° C | 35% | 1017.1 hPa | 0 mm | - | 88 W/m² | - |
| 1777675497 | 16.67° C | 38% | 1017.1 hPa | 0 mm | - | 114 W/m² | - |
| 1777675194 | 16.67° C | 38% | 1016.8 hPa | 0 mm | - | 152 W/m² | - |
| 1777674890 | 16.67° C | 35% | 1016.9 hPa | 0 mm | - | 154 W/m² | - |
| 1777674585 | 17.22° C | 34% | 1017 hPa | 0 mm | - | 231 W/m² | - |
| 1777674284 | 17.22° C | 32% | 1017.2 hPa | 0 mm | - | 169 W/m² | - |
| 1777673979 | 17.22° C | 31% | 1017.1 hPa | 0 mm | - | 159 W/m² | - |
| 1777673676 | 17.22° C | 29% | 1017.1 hPa | 0 mm | - | 286 W/m² | - |
| 1777673374 | 16.67° C | 33% | 1017 hPa | 0 mm | - | 197 W/m² | - |
| 1777673072 | 17.22° C | 31% | 1017 hPa | 0 mm | - | 217 W/m² | - |
| 1777672767 | 17.22° C | 32% | 1017 hPa | 0 mm | - | 297 W/m² | - |
| 1777672464 | 17.22° C | 33% | 1017 hPa | 0 mm | - | 173 W/m² | - |
| 1777672160 | 17.78° C | 32% | 1017.1 hPa | 0 mm | - | 254 W/m² | - |
| 1777671855 | 17.78° C | 34% | 1016.9 hPa | 0 mm | - | 315 W/m² | - |
| 1777671551 | 17.78° C | 32% | 1016.9 hPa | 0 mm | - | 351 W/m² | - |
| 1777671248 | 17.78° C | 32% | 1017 hPa | 0 mm | - | 361 W/m² | - |
| 1777670943 | 17.78° C | 32% | 1017 hPa | 0 mm | - | 348 W/m² | - |
| 1777670640 | 17.78° C | 32% | 1017 hPa | 0 mm | - | 430 W/m² | - |
| 1777670337 | 17.78° C | 34% | 1017.2 hPa | 0 mm | - | 329 W/m² | - |
| 1777670035 | 17.78° C | 32% | 1017.2 hPa | 0 mm | - | 388 W/m² | - |
| 1777669732 | 17.78° C | 34% | 1017.3 hPa | 0 mm | - | 318 W/m² | - |
| 1777669429 | 18.33° C | 31% | 1017.4 hPa | 0 mm | - | 443 W/m² | - |
* Rain latest hour (hover to see other rain measurements)
** Current wind speed in m/s (hover to see current wind gust speed)